Tracking 25693 objects as of 30-Jun-2022
HD Live streaming from Space Station
objects crossing your sky now

SL-8 DEB *

Track SL-8 DEB * now!
10-day predictions


NORAD ID: 3743
Int'l Code: 1965-020ES
Perigee: 1,389.9 km
Apogee: 1,805.4 km
Inclination: 56.7 °
Period: 118.0 minutes
Semi major axis: 7968 km
RCS: 0.0769 m2 (small)
Launch date: March 15, 1965
Source: Commonwealth of Independent States (former USSR) (CIS)
Launch site: TYURATAM MISSILE AND SPACE COMPLEX (TTMTR)

Note: This is SATELLITE DEBRIS
aabbcc
Your satellite tracking list
Your tracking list is empty




NASA's NSSDC Master Catalog

Two Line Element Set (TLE):
1 03743U 65020ES  22180.70898150 -.00000052  00000-0  29566-3 0  9990
2 03743  56.6623 306.9975 0260701 168.5515 312.2502 12.20458948397303
Source of the keplerian elements: AFSPC